Portada
METAR-TAF:

METAR-TAF

Aeroports :

Berlin, Nova Hampshire, Estats Units d'Amèrica

latitud: 44-34-34N, longitud: 071-10-43W, altitud: 353 m

Observació

L'informe es va fer fa 38 minuts, a les 19:52 UTC
Vent 7 kt del Oest/Nord-Oest, variant entre Sud-Oest i Est/Nord-Est
Temperatura 22°C
Humitat 41%
Pressió 1017 hPa
Visibilitat: 16.1 km
Cel clar

METAR: KBML 151952Z AUTO 30007KT 220V060 10SM CLR 22/08 A3002 RMK AO2 SLP163 T02170083

Hora: 16:30 (20:30 UTC)


TAF: manca

Observacions i pronòstics meteorològics de més de 4000 aeroports (METAR i TAF).

Les estacions disponibles són els punts grocs i vermells al mapa.

Posi el ratolí al punt desitjat per veure el nom de l'estació.

Feu clic per veure les observacions i els pronòstics meteorològics.

Per canviar el mapa: feu clic els botons verds amb una creu de color negre per apropar; al botó verd amb un guió per allunyar la imatge; o en les fletxes verdes per a mapes adjacents.


METAR-TAF: